Regional Weather Roundup
Issued by NWS

Home | Current Version | Previous Version | Graphics & Text | Print | Product List | Glossary On
Versions: 1 2 3 4 5 6 7 8 9 10 11 12 13 14 15 16 17 18 19 20 21 22 23 24 25 26 27 28 29 30 31 32 33 34 35 36 37 38 39 40 41 42 43 44 45 46 47 48 49 50
000
ASUS43 KBIS 170310
RWRND

NORTH DAKOTA REGIONAL WEATHER ROUNDUP
NATIONAL WEATHER SERVICE BISMARCK ND
1000 PM CDT MON OCT 16 2017

NOTE: "FAIR" INDICATES FEW OR NO CLOUDS BELOW 12,000 FEET WITH NO
SIGNIFICANT WEATHER AND/OR OBSTRUCTIONS TO VISIBILITY.


NDZ001>003-009>011-017-170400-
NORTHWEST NORTH DAKOTA

CITY           SKY/WX    TMP DP  RH WIND       PRES   REMARKS
WILLISTON      CLEAR     41  32  70 CALM      29.93S
MINOT          CLEAR     51  34  52 SW10      29.91R
MINOT AFB      CLEAR     46  33  60 W8        29.90R
$$

NDZ018>021-031>035-040>046-170400-
SOUTHWEST NORTH DAKOTA

CITY           SKY/WX    TMP DP  RH WIND       PRES   REMARKS
BISMARCK       CLOUDY    49  33  54 SW5       29.97S
DICKINSON      CLOUDY    41  29  62 S6        29.98F
GARRISON         N/A     47  34  60 W10       29.94S
HETTINGER ARPT CLEAR     41  27  57 CALM      30.04S
$$

NDZ004>008-012>016-024-026-027-054-170400-
NORTHEAST NORTH DAKOTA

CITY           SKY/WX    TMP DP  RH WIND       PRES   REMARKS
GRAND FORKS    CLOUDY    53  37  54 W7        29.87R
GRND FRKS AFB  CLOUDY    52  35  53 W8        29.87S
DEVILS LAKE    CLOUDY    47  38  71 W8        29.92R
$$

NDZ022-023-025-028>030-036>039-047>053-170400-
SOUTHEAST NORTH DAKOTA

CITY           SKY/WX    TMP DP  RH WIND       PRES   REMARKS
FARGO          CLOUDY    48  39  71 W5        29.90R
JAMESTOWN      PTCLDY    49  34  56 W10       29.93R
$$




USA.gov is the U.S. government's official web portal to all federal, state and local government web resources and services.